Regional Weather Roundup
Issued by NWS

Home | Current Version | Previous Version | Graphics & Text | Print | Product List | Glossary On
Versions: 1 2 3 4 5 6 7 8 9 10 11 12 13 14 15 16 17 18 19 20 21 22 23 24 25 26 27 28 29 30 31 32 33 34 35 36 37 38 39 40 41 42 43 44 45 46 47 48 49 50
000
ASUS43 KIND 201609
RWRIN

WEATHER ROUNDUP FOR INDIANA
NATIONAL WEATHER SERVICE INDIANAPOLIS IN
1200 PM EDT MON OCT 20 2014

NOTE: "FAIR" INDICATES FEW OR NO CLOUDS BELOW 12,000 FEET WITH NO
SIGNIFICANT WEATHER AND/OR OBSTRUCTIONS TO VISIBILITY.

* - STATION DOES NOT REPORT WEATHER SUCH AS PRECIPITATION OR FOG.

+ - STATION NOT QUALITY CONTROLLED BY THE NATIONAL WEATHER SERVICE.
    USE DATA WITH CAUTION...ESPECIALLY DEWPOINT AND RELATIVE
    HUMIDITY OBSERVATIONS.

INZ001>003-010>013-019-020-201700-
NORTHWEST INDIANA

CITY           SKY/WX    TMP DP  RH WIND       PRES   REMARKS
KNOX *+        MOSUNNY   58  46  65 SW7       29.83S
LA PORTE +     MOSUNNY   58  50  73 NW7       29.85R
MICHIGAN CITY+ PTSUNNY   54  45  71 W8        29.85R
MONTICELLO +   PTSUNNY   56  49  76 W12       29.86F
RENSSELAER +   SUNNY     59  52  77 SW8       29.85F
VALPARAISO     MOSUNNY   57  47  69 W7        29.85S

$$

LMZ046-743>745-201700-
SOUTHERN LAKE MICHIGAN

STATION/POSITION TIME  TEMP WIND        PRES
                       AIR  DIR/SP/G
                 (UTC) (F)  (DEG/KT/KT) (MB)
MICHIGAN CITY    1600   53  240/ 10/ 11   N/A

$$

INZ004-005-014>016-021>024-201700-
NORTH CENTRAL INDIANA

CITY           SKY/WX    TMP DP  RH WIND       PRES   REMARKS
ELKHART        PTSUNNY   54  48  82 W6        29.83F
GOSHEN         CLOUDY    55  48  77 SW8       29.83F
LOGANSPORT +   CLOUDY    54  46  76 SW12      29.86F
PERU/GRISSOM   CLOUDY    56  53  88 W14       29.86F
ROCHESTER +    CLOUDY    59  50  72 SW13      29.85F
SOUTH BEND     MOSUNNY   56  48  74 W9        29.84F
WARSAW +       CLOUDY    54  46  76 SW10      29.85F

$$

INZ006>009-017-018-025>027-201700-
NORTHEAST INDIANA

CITY           SKY/WX    TMP DP  RH WIND       PRES   REMARKS
ANGOLA *+      PTSUNNY   52  48  87 SW5       29.84F
AUBURN +       HVY RAIN  52  46  82 SW5       29.86F
FORT WAYNE     LGT RAIN  52  49  89 SW8       29.87F
HUNTINGTON +   CLOUDY    53  49  88 SW8       29.86S

$$

INZ028-029-035-036-043>045-051>053-201700-
WEST CENTRAL INDIANA

CITY           SKY/WX    TMP DP  RH WIND       PRES   REMARKS
CRAWFORDSVL +  CLOUDY    57  48  72 SW16      29.89
GREENCASTLE +  MOSUNNY   57  50  77 W8        29.90F
LAFAYETTE      CLOUDY    56  50  80 SW8G20    29.87F
TERRE HAUTE    MOSUNNY   60  50  69 W15G21    29.91F

$$

INZ030>032-037>040-046>048-054>057-064-065-201700-
CENTRAL INDIANA

CITY           SKY/WX    TMP DP  RH WIND       PRES   REMARKS
ANDERSON       CLOUDY    54  46  76 SW12G17   29.92R
CP ATTERBURY + MOSUNNY   61  50  67 SW10      29.92F
COLUMBUS       PTSUNNY   57  50  77 S15       29.93F
FRANKFORT +    PTSUNNY   56  51  81 SW13      29.89F
GREENWOOD *+   MOSUNNY   61  46  59 SW14      29.91
INDIANAPOLIS   MOSUNNY   58  48  69 SW17      29.88F
-EAGLE CREEK   PTSUNNY   58  48  69 SW8       29.88F
KOKOMO *+      CLOUDY    55  48  76 W13       29.88F
MARION +       PTSUNNY   53  46  78 SW8       29.88F HAZE
MT COMFORT *+  MOSUNNY   57  43  58 SW10G17   29.89F
SHELBYVILLE    MOSUNNY   59  47  64 SW15      29.90F
ZIONSVILLE +   CLOUDY    55  48  77 SW9       29.89F

$$

INZ033-034-041-042-049-050-058-059-201700-
EAST CENTRAL INDIANA

CITY           SKY/WX    TMP DP  RH WIND       PRES   REMARKS
MUNCIE         CLOUDY    55  47  74 SW13      29.89S

$$

INZ060-061-067>069-081>083-085>088-201700-
SOUTHWEST INDIANA

CITY           SKY/WX    TMP DP  RH WIND       PRES   REMARKS
EVANSVILLE     CLOUDY    60  49  66 SW12      29.99F
HUNTINGBURG *+ PTSUNNY   55  48  76 SW15G21   29.99F
WASHINGTON +   MOSUNNY   59  50  73 SW16      29.95F

$$

INZ062-063-066-070>080-084-089>092-201700-
SOUTH CENTRAL AND SOUTHEAST INDIANA

CITY           SKY/WX    TMP DP  RH WIND       PRES   REMARKS
BLOOMINGTON    MOSUNNY   60  49  66 SW14G21   29.92F
NORTH VERNON + CLOUDY    57  50  77 S14       29.95

$$




USA.gov is the U.S. government's official web portal to all federal, state and local government web resources and services.